TimeCST,TemperatureF,Dew PointF,Humidity,Sea Level PressureIn,VisibilityMPH,Wind Direction,Wind SpeedMPH,Gust SpeedMPH,PrecipitationIn,Events,Conditions,WindDirDegrees,DateUTC
12:53 AM,45.0,39.9,82,30.14,10.0,SE,3.5,-,N/A,,Clear,140,2012-11-09 06:53:00
1:53 AM,45.0,39.9,82,30.14,10.0,SE,3.5,-,N/A,,Clear,130,2012-11-09 07:53:00
2:53 AM,43.0,41.0,93,30.14,10.0,ESE,4.6,-,N/A,,Clear,120,2012-11-09 08:53:00
3:53 AM,45.0,42.1,90,30.14,10.0,SSE,3.5,-,N/A,,Clear,150,2012-11-09 09:53:00
4:53 AM,46.9,42.1,83,30.16,10.0,SSE,4.6,-,N/A,,Clear,160,2012-11-09 10:53:00
5:53 AM,45.0,41.0,86,30.17,10.0,ESE,3.5,-,N/A,,Clear,120,2012-11-09 11:53:00
6:53 AM,44.1,42.1,93,30.19,10.0,ESE,3.5,-,N/A,,Clear,120,2012-11-09 12:53:00
7:53 AM,52.0,45.0,77,30.20,10.0,South,8.1,-,N/A,,Clear,170,2012-11-09 13:53:00
8:37 AM,55.4,44.6,67,30.21,10.0,South,9.2,-,N/A,,Mostly Cloudy,190,2012-11-09 14:37:00
8:53 AM,57.0,46.0,67,30.21,10.0,South,9.2,-,N/A,,Mostly Cloudy,170,2012-11-09 14:53:00
9:02 AM,57.2,46.4,67,30.21,10.0,South,11.5,-,N/A,,Scattered Clouds,180,2012-11-09 15:02:00
9:53 AM,59.0,46.9,64,30.21,10.0,South,8.1,-,N/A,,Clear,170,2012-11-09 15:53:00
10:53 AM,62.1,46.0,56,30.20,10.0,South,6.9,-,N/A,,Clear,180,2012-11-09 16:53:00
11:53 AM,68.0,46.9,47,30.16,10.0,South,6.9,-,N/A,,Partly Cloudy,170,2012-11-09 17:53:00
12:53 PM,71.1,46.0,41,30.13,10.0,South,12.7,17.3,N/A,,Scattered Clouds,170,2012-11-09 18:53:00
1:53 PM,72.0,46.9,41,30.10,10.0,South,13.8,-,N/A,,Clear,180,2012-11-09 19:53:00
2:53 PM,72.0,45.0,38,30.09,10.0,South,15.0,-,N/A,,Clear,170,2012-11-09 20:53:00
3:53 PM,71.1,46.9,42,30.08,10.0,South,11.5,19.6,N/A,,Clear,170,2012-11-09 21:53:00
4:53 PM,66.0,48.0,52,30.08,10.0,SE,8.1,-,N/A,,Clear,140,2012-11-09 22:53:00
5:53 PM,61.0,46.9,60,30.09,10.0,SSE,6.9,-,N/A,,Clear,150,2012-11-09 23:53:00
6:53 PM,59.0,46.0,62,30.10,10.0,South,9.2,-,N/A,,Clear,170,2012-11-10 00:53:00
7:53 PM,55.0,46.0,72,30.10,10.0,SSE,5.8,-,N/A,,Clear,150,2012-11-10 01:53:00
8:53 PM,54.0,45.0,72,30.10,10.0,SSE,5.8,-,N/A,,Clear,160,2012-11-10 02:53:00
9:53 PM,54.0,45.0,72,30.11,10.0,SSE,3.5,-,N/A,,Clear,160,2012-11-10 03:53:00
10:53 PM,57.0,46.9,69,30.12,10.0,South,9.2,-,N/A,,Clear,170,2012-11-10 04:53:00
11:53 PM,59.0,48.0,67,30.11,10.0,South,11.5,-,N/A,,Clear,190,2012-11-10 05:53:00